PulseSat

PulseSat

GSAT0218 (GALILEO 22)

Last updated on Dec. 10, 2018, 12:08 a.m. UTC

1 43058U 17079D   18343.77319955 -.00000050  00000-0  00000+0 0  9994
2 43058  56.7129 297.0115 0005524 263.4615  96.4596  1.70473613  6164
UTC
Height (km)
Latitude
Longitude
Inclination
Orbital Period

Next 30 passes for location: Hong Kong

Rise time Rise Azimuth (degrees) Set time Set Azimuth (degrees) Duration Max altitude (degrees)

No matching passes for this satellites

PulseSat

PulseSat is the new satellites software and hardware trackering solution by Pulsely.
Satellite Two Line Element Set source: US Air Force Space Command

Download PulseSat for iOS
© 2017 Pulsely Limited